Regional Weather Roundup
Issued by NWS

Home | Current Version | Previous Version | Text Only | Print | Product List | Glossary On
Versions: 1 2 3 4 5 6 7 8 9 10 11 12 13 14 15 16 17 18 19 20 21 22 23 24 25 26 27 28 29 30 31 32 33 34 35 36 37 38 39 40 41 42 43 44 45 46 47 48 49 50
000
ASUS43 KDTX 292301
RWRMI
MICHIGAN HOURLY REGIONAL WEATHER ROUNDUP
NATIONAL WEATHER SERVICE DETROIT/PONTIAC MI
700 PM EDT WED MAR 29 2017

NOTE: "FAIR" INDICATES FEW OR NO CLOUDS BELOW 12,000 FEET WITH NO
SIGNIFICANT WEATHER AND/OR OBSTRUCTION TO VISIBILITY.

MIZ047>049-052>055-059>063-066>070-074>076-081>083-300000-
SOUTHEAST LOWER MICHIGAN

CITY           SKY/WX    TMP DP  RH WIND       PRES   REMARKS
ADRIAN         CLOUDY    49  32  52 SE10      30.22S
ALMA           CLOUDY    41  31  67 E15       30.28R
ANN ARBOR      CLOUDY    50  35  56 E8        30.21S
BAD AXE        PTCLDY    37  29  74 NE8       30.31F WCI  30
CARO           CLOUDY    40  34  80 NE3       30.29R
DETROIT CITY   PTCLDY    47  33  58 NE15      30.25R
DETROIT        CLOUDY    50  28  42 SE8       30.24S
FLINT          CLOUDY    47  36  65 NE14      30.25F
GROSSE ILE     CLOUDY    45  32  60 S3        30.23S
HILLSDALE      CLOUDY    50  34  53 E8        30.20R
HOWELL         CLOUDY    48  37  64 NE7       30.23S

CITY           SKY/WX    TMP DP  RH WIND       PRES   REMARKS
JACKSON        CLOUDY    52  31  44 NE10      30.20S
LAMBERTVILLE   CLOUDY    49  30  46 E5        30.21F
LANSING        CLOUDY    46  32  58 NE8       30.24S
LAPEER         FAIR      44  32  62 NE9G17    30.27S
MASON          CLOUDY    48  36  63 NE10      30.23S
MONROE         CLOUDY    47  32  54 SE7       30.22F
MT. CLEMENS    CLOUDY    46  33  61 NE14      30.24F
PONTIAC        CLOUDY    49  35  58 NE14      30.23R
PORT HOPE        N/A     35  30  82 N14       30.31F WCI  26
PORT HURON     PTCLDY    39  32  75 NE15      30.27F WCI  31
TRI CITIES     CLOUDY    37  32  82 NE14      30.30F WCI  28
MIDLAND        FAIR      37  29  73 E15       30.29F WCI  28
TROY           CLOUDY    50  33  51 NE17      30.26R
SAGINAW HB     CLOUDY    37  32  81 NE10      30.29F WCI  30
$$
MIZ043>046-050>051-056>058-064>065-071>073-077>080-300000-
SOUTHWEST LOWER MICHIGAN

CITY           SKY/WX    TMP DP  RH WIND       PRES   REMARKS
BATTLE CREEK   CLOUDY    52  33  48 E10       30.19F
BENTON HARBOR  CLOUDY    54  32  43 E12       30.10F
BIG RAPIDS     CLOUDY    45  33  63 E14       30.22S
COLDWATER      CLOUDY    52  32  46 E8        30.19F
FREMONT        PTSUNNY   52  23  32 E6        30.17F
HOLLAND        CLOUDY    52  34  50 E14G21    30.16F
GRAND RAPIDS   CLOUDY    50  39  66 E15       30.19F
IONIA          PTSUNNY   46  31  58 E13       30.22S
KALAMAZOO      CLOUDY    53  31  42 E10       30.17F
LUDINGTON      CLOUDY    46  34  61 NE6       30.18F
MARSHALL       CLOUDY    52  33  48 NE3       30.20S
MOUNT PLEASANT CLOUDY    41  29  61 E12       30.26F
MUSKEGON       CLOUDY    53  32  44 E13       30.16F
SOUTH HAVEN    CLOUDY    52  31  44 E12G17    30.13F
$$
MIZ016>042-300000-
NORTHERN LOWER MICHIGAN

CITY           SKY/WX    TMP DP  RH WIND       PRES   REMARKS
ALPENA         MOCLDY    36  23  59 SE6       30.36F WCI  31
BEAVER ISLAND  CLOUDY    37  25  63 E9        30.31F WCI  30
BELLAIRE       CLOUDY    47  28  46 NE6       30.26F
CADILLAC       MOSUNNY   47  26  43 E10       30.21F
CHARLEVOIX     CLOUDY    41  27  59 NE14      30.31F
FRANKFORT      CLOUDY    40  31  70 NE6       30.23F
GAYLORD        CLOUDY    43  27  53 E8        30.27F
GRAYLING       CLOUDY    45  28  53 E14       30.26F
HARBOR SPRINGS CLOUDY    40  25  56 NE13      30.30F WCI  32
HOUGHTON LAKE  PTSUNNY   44  30  57 E13       30.26F
MANISTEE       CLOUDY    47  29  49 NE10      30.20F
OSCODA         CLOUDY    36  25  64 NE5       30.34F WCI  32
PELLSTON       CLOUDY    40  22  48 E9        30.32F WCI  34
ROGERS CITY    CLOUDY    37  27  68 NE3       30.36F
TRAVERSE CITY  CLOUDY    40  31  70 NW6       30.25F
$$
MIZ007>008-015-300000-
EASTERN UPPER MICHIGAN

CITY           SKY/WX    TMP DP  RH WIND       PRES   REMARKS
KINROSS        PTSUNNY   38  22  52 S6        30.34F WCI  33
MACKINAC ISLAN PTSUNNY   35  25  66 E3        30.33F
NEWBERRY       PTSUNNY   37  23  55 S6        30.32F WCI  33
S. S. MARIE    MOCLDY    41  24  51 CALM      30.33F
MUNISING         N/A     33  29  85 N5        30.31F WCI  29
$$
MIZ004>006-011>014-085-300000-
CENTRAL UPPER MICHIGAN

CITY           SKY/WX    TMP DP  RH WIND       PRES   REMARKS
MANISTIQUE     CLOUDY    37  22  54 E10       30.30F WCI  30
ESCANABA       CLOUDY    38  29  70 NE6       30.29F WCI  33
MENOMINEE      PTSUNNY   37  27  67 E13       30.28F WCI  29
SAWYER-GWINN   SUNNY     32  25  74 NE7       30.29F WCI  26
$$
MIZ001>003-009>011-084-300000-
WESTERN UPPER MICHIGAN

CITY           SKY/WX    TMP DP  RH WIND       PRES   REMARKS
IRON MOUNTAIN  CLOUDY    44  24  45 NE6       30.23F
HOUGHTON       PTSUNNY   32  25  75 E10       30.29S WCI  24
COPPER HARBOR    N/A     34  25  69 VRB5      30.32F WCI  30
IRONWOOD       CLOUDY    49  30  48 E7        30.21S
$$

ABBREVIATIONS USED IN REMARKS
   TC - TEMPERATURE IN CELSIUS
  WCI - WIND CHILL INDEX
   HX - HEAT INDEX
  VSB - VISIBILITY





USA.gov is the U.S. government's official web portal to all federal, state and local government web resources and services.